Date String (YYYY-MM-DD hh:mm:ss) UTC,Instrument flags,Ambient pressure (hPa),Sample flow (lpm),Bypass flow (lpm),Sample temperature (°C),Ambient temperature (°C),ASC tube jacket temperature (°C),LED temperature (°C),Box temperature (°C),Sample RH (%),Span deviation,Mass concentration (μg/m³),Mass concentration (μg/m³),Mass concentration (μg/m³)
DateTimeUTC,F1_M11,P_M11,Q1_M11,Q2_M11,T1_M11,T2_M11,T3_M11,T4_M11,T5_M11,U1_M11,ZSPAN_M11,X0_M11,X2_M11,X1_M11
2023-02-01 03:00:00,,0824.9,4.95,0.00,22.3,20.3,00.0,31.3,23.9,06.8,0000.6,0026.78,0015.80,0014.68
2023-02-01 03:01:00,,0824.9,5.03,0.00,22.2,20.2,00.0,31.3,23.8,06.8,0001.2,0026.06,0015.74,0014.68
2023-02-01 03:02:00,,0825.0,4.98,0.00,22.2,20.0,00.0,31.3,23.7,06.9,0001.5,0026.10,0015.80,0014.70
2023-02-01 03:03:00,,0825.0,5.03,0.00,22.2,20.6,00.0,31.2,23.9,06.9,0001.6,0026.57,0015.81,0014.69
2023-02-01 03:04:00,,0824.9,4.96,0.00,22.3,21.8,00.0,31.2,24.2,06.8,0001.7,0026.93,0015.80,0014.70
2023-02-01 03:05:00,,0824.9,5.01,0.00,22.4,22.6,00.0,31.2,24.4,06.8,0001.9,0026.64,0015.82,0014.77
2023-02-01 03:06:00,,0824.9,4.98,0.00,22.5,22.4,00.0,31.2,24.4,06.8,0002.2,0025.63,0015.87,0014.86
2023-02-01 03:07:00,,0824.9,5.01,0.00,22.5,22.0,00.0,31.3,24.4,06.8,0002.7,0025.70,0015.93,0014.94
2023-02-01 03:08:00,,0824.9,5.01,0.00,22.5,21.7,00.0,31.3,24.3,06.8,0002.9,0025.33,0016.01,0015.04
2023-02-01 03:09:00,,0824.9,4.99,0.00,22.5,21.5,00.0,31.3,24.2,06.8,0002.8,0025.23,0016.13,0015.15
2023-02-01 03:10:00,,0824.9,5.02,0.00,22.4,21.2,00.0,31.3,24.2,06.8,0002.6,0024.94,0016.22,0015.26
2023-02-01 03:11:00,,0824.9,4.99,0.00,22.4,21.1,00.0,31.3,24.2,06.8,0002.2,0024.59,0016.28,0015.31
2023-02-01 03:12:00,,0824.9,5.01,0.00,22.4,20.9,00.0,31.3,24.1,06.8,0002.0,0024.71,0016.37,0015.37
2023-02-01 03:13:00,,0824.9,5.01,0.00,22.4,20.7,00.0,31.3,24.1,06.8,0001.8,0024.73,0016.41,0015.45
2023-02-01 03:14:00,,0825.0,5.00,0.00,22.4,20.6,00.0,31.3,24.0,06.9,0001.7,0024.54,0016.46,0015.53
2023-02-01 03:15:00,,0824.9,5.01,0.00,22.3,20.4,00.0,31.3,24.0,06.9,0001.2,0023.75,0016.51,0015.60
2023-02-01 03:16:00,,0824.8,4.99,0.00,22.3,20.2,00.0,31.3,23.9,06.9,0000.8,0023.79,0016.53,0015.61
2023-02-01 03:17:00,,0824.8,4.99,0.00,22.2,20.5,00.0,31.2,23.9,06.9,0000.1,0023.75,0016.47,0015.57
2023-02-01 03:18:00,,0824.9,5.00,0.00,22.3,21.5,00.0,31.2,24.2,06.9,0000.1,0023.26,0016.42,0015.53
2023-02-01 03:19:00,,0824.9,5.01,0.00,22.4,22.4,00.0,31.2,24.4,06.8,0000.3,0023.20,0016.35,0015.48
2023-02-01 03:20:00,,0824.9,4.98,0.00,22.5,22.6,00.0,31.2,24.5,06.8,0000.0,0023.09,0016.27,0015.42
2023-02-01 03:21:00,,0824.9,5.00,0.00,22.5,22.1,00.0,31.2,24.4,06.8,0000.2,0023.19,0016.22,0015.40
2023-02-01 03:22:00,,0824.9,5.02,0.00,22.5,21.7,00.0,31.3,24.3,06.8,0000.7,0023.11,0016.22,0015.43
2023-02-01 03:23:00,,0824.9,5.00,0.00,22.5,21.3,00.0,31.3,24.2,06.8,0000.9,0023.06,0016.19,0015.44
2023-02-01 03:24:00,,0824.9,5.01,0.00,22.4,21.1,00.0,31.3,24.2,06.8,0000.5,0023.67,0016.23,0015.46
2023-02-01 03:25:00,,0824.9,5.00,0.00,22.4,20.8,00.0,31.3,24.1,06.8,0000.3,0024.00,0016.28,0015.46
2023-02-01 03:26:00,,0824.9,5.00,0.00,22.4,20.6,00.0,31.3,24.0,06.8,0000.4,0023.97,0016.24,0015.45
2023-02-01 03:27:00,,0824.8,5.01,0.00,22.3,20.5,00.0,31.3,23.9,06.8,0000.6,0024.83,0016.26,0015.45
2023-02-01 03:28:00,,0824.7,5.01,0.00,22.3,20.4,00.0,31.2,23.9,06.9,0001.0,0024.92,0016.34,0015.50
2023-02-01 03:29:00,,0824.8,4.98,0.00,22.2,20.3,00.0,31.2,23.9,06.9,0001.0,0025.13,0016.37,0015.52
2023-02-01 03:30:00,,0824.8,5.01,0.00,22.2,20.3,00.0,31.2,23.8,06.9,0000.3,0025.55,0016.39,0015.53
2023-02-01 03:31:00,,0824.8,5.02,0.00,22.2,21.1,00.0,31.1,24.0,06.9,0000.5,0026.56,0016.42,0015.55
2023-02-01 03:32:00,,0824.8,5.01,0.00,22.3,22.1,00.0,31.1,24.3,06.9,0000.5,0027.15,0016.45,0015.57
2023-02-01 03:33:00,,0824.9,4.99,0.00,22.4,22.6,00.0,31.2,24.4,06.8,-000.0,0027.39,0016.53,0015.60
2023-02-01 03:34:00,,0824.8,5.02,0.00,22.4,22.1,00.0,31.2,24.3,06.8,-000.4,0027.52,0016.60,0015.65
2023-02-01 03:35:00,,0824.8,5.00,0.00,22.4,21.6,00.0,31.2,24.2,06.8,-000.6,0027.15,0016.60,0015.63
2023-02-01 03:36:00,,0824.8,4.99,0.00,22.4,21.3,00.0,31.2,24.2,06.8,-000.5,0026.74,0016.45,0015.48
2023-02-01 03:37:00,,0824.9,4.99,0.00,22.4,21.2,00.0,31.2,24.1,06.8,-000.5,0026.52,0016.37,0015.36
2023-02-01 03:38:00,,0824.9,5.01,0.00,22.4,21.0,00.0,31.2,24.1,06.8,-000.5,0025.80,0016.30,0015.27
2023-02-01 03:39:00,,0824.9,4.98,0.00,22.3,20.5,00.0,31.2,23.9,06.8,-000.3,0026.29,0016.25,0015.17
2023-02-01 03:40:00,,0824.8,5.01,0.00,22.2,20.2,00.0,31.2,23.8,06.8,-000.4,0026.25,0016.21,0015.07
2023-02-01 03:41:00,,0824.6,4.97,0.00,22.2,20.1,00.0,31.2,23.8,06.9,-000.2,0026.18,0016.12,0014.95
2023-02-01 03:42:00,,0824.7,5.01,0.00,22.1,20.1,00.0,31.2,23.7,06.9,0000.0,0025.79,0016.08,0014.86
2023-02-01 03:43:00,,0824.8,4.98,0.00,22.1,20.0,00.0,31.1,23.7,06.9,0000.1,0025.27,0016.03,0014.80
2023-02-01 03:44:00,,0824.9,5.01,0.00,22.1,20.6,00.0,31.1,23.8,06.9,0000.1,0025.00,0015.95,0014.72
2023-02-01 03:45:00,,0824.9,5.04,0.00,22.2,21.7,00.0,31.1,24.1,06.9,0000.0,0025.44,0015.88,0014.61
2023-02-01 03:46:00,,0825.0,5.01,0.00,22.3,22.5,00.0,31.1,24.3,06.8,0000.4,0026.19,0015.76,0014.52
2023-02-01 03:47:00,,0824.9,4.98,0.00,22.4,22.3,00.0,31.1,24.3,06.8,0000.3,0026.54,0015.74,0014.52
2023-02-01 03:48:00,,0824.9,5.01,0.00,22.4,21.9,00.0,31.1,24.2,06.8,-000.0,0026.62,0015.76,0014.57
2023-02-01 03:49:00,,0824.9,4.99,0.00,22.4,21.6,00.0,31.2,24.2,06.8,0000.3,0026.51,0015.74,0014.56
2023-02-01 03:50:00,,0824.9,4.99,0.00,22.3,21.3,00.0,31.2,24.1,06.9,0000.5,0026.23,0015.58,0014.45
2023-02-01 03:51:00,,0824.9,4.99,0.00,22.3,21.1,00.0,31.2,24.0,06.9,0000.5,0026.08,0015.44,0014.31
2023-02-01 03:52:00,,0825.0,5.00,0.00,22.3,20.9,00.0,31.2,24.0,06.9,0000.4,0025.36,0015.26,0014.19
2023-02-01 03:53:00,,0825.0,5.00,0.00,22.3,20.8,00.0,31.2,24.0,06.9,0000.3,0025.17,0015.08,0014.01
2023-02-01 03:54:00,,0825.0,5.01,0.00,22.3,20.8,00.0,31.2,24.0,06.9,0000.3,0025.27,0014.83,0013.76
2023-02-01 03:55:00,,0825.0,5.01,0.00,22.3,20.7,00.0,31.2,24.0,06.9,0000.2,0025.24,0014.54,0013.48
2023-02-01 03:56:00,,0825.1,5.00,0.00,22.2,20.7,00.0,31.2,24.0,07.0,0000.1,0024.49,0014.25,0013.20
2023-02-01 03:57:00,,0825.1,5.03,0.00,22.2,20.7,00.0,31.1,24.0,07.0,0000.0,0023.38,0014.01,0012.94
2023-02-01 03:58:00,,0825.2,5.00,0.00,22.3,21.3,00.0,31.1,24.1,06.9,0000.1,0022.53,0013.82,0012.76
2023-02-01 03:59:00,,0825.1,5.02,0.00,22.4,22.3,00.0,31.1,24.4,06.9,0000.3,0022.43,0013.64,0012.55
